Regional Weather Roundup
Issued by NWS

Home | Current Version | Previous Version | Graphics & Text | Print | Product List | Glossary On
Versions: 1 2 3 4 5 6 7 8 9 10 11 12 13 14 15 16 17 18 19 20 21 22 23 24 25 26 27 28 29 30 31 32 33 34 35 36 37 38 39 40 41 42 43 44 45 46 47 48 49 50
000
ASUS43 KLSX 210159
RWRMO

WEATHER SUMMARY FOR MISSOURI
NATIONAL WEATHER SERVICE SPRINGFIELD MO
900 PM CDT MON APR 20 2015

NOTE: "FAIR" INDICATES FEW OR NO CLOUDS BELOW 12,000 FEET WITH NO
       SIGNIFICANT WEATHER AND/OR OBSTRUCTIONS TO VISIBILITY.
       CURRENT SKY AND/OR WEATHER CONDITIONS ARE NOT AVAILABLE FOR
       CHILLICOTHE AND FARMINGTON.

MOZ001>031-035>038-043-044-053-054-210300-
...NORTHERN AND WESTERN MISSOURI...

CITY           SKY/WX    TMP DP  RH WIND       PRES   REMARKS
KANSAS CTY INT PTCLDY    49  27  42 SW6       29.84R
KANSAS C DTWN  PTCLDY    54  26  34 SW6       29.84R
LEE`S SUMMIT   CLEAR     51  26  37 SW5       29.85R
ST JOSEPH      PTCLDY    50  28  42 W9        29.82R
CHILLICOTHE      N/A     52  25  35 W3        29.81R
KIRKSVILLE     PTCLDY    48  25  40 SW5       29.77R

$$
MOZ066>068-077>081-088>096-101>105-210300-
...SOUTHWEST MISSOURI...

CITY           SKY/WX    TMP DP  RH WIND       PRES   REMARKS
SPRINGFIELD    CLEAR     45  31  58 SW6       29.91R
JOPLIN         CLEAR     50  35  56 MISG      29.93R

$$
MOZ032>034-039>042-045>050-055>058-069>072-210300-
...CENTRAL MISSOURI...

CITY           SKY/WX    TMP DP  RH WIND       PRES   REMARKS
COLUMBIA       CLEAR     47  28  47 SW8       29.83S
JEFFERSON CITY CLEAR     50  27  40 SW3       29.85R
ROLLA          CLEAR     46  29  51 W6        29.85R
SEDALIA        CLEAR     50  28  42 SW6       29.86R
WHITEMAN AFB   CLEAR     49  28  45 SW7       29.85R
OSAGE BEACH    CLEAR     52  19  28 W3        29.88R

$$
MOZ051-052-059>065-210300-
...EAST CENTRAL MISSOURI...

CITY           SKY/WX    TMP DP  RH WIND       PRES   REMARKS
ST LOUIS INTL  PTCLDY    54  29  38 W13       29.83R
SPIRIT OF STL  CLEAR     45  34  65 SW7       29.83R
ST CHARLES     PTCLDY    51  33  50 W9        29.82R

$$
MOZ072>076-082>087-097>100-106>115-210300-
...SOUTH CENTRAL AND SOUTHEAST MISSOURI...

CITY           SKY/WX    TMP DP  RH WIND       PRES   REMARKS
CAPE GIRARDEAU MOCLDY    50  44  80 W5        29.86R
FARMINGTON     CLEAR     52  28  40 W3        29.89R
POPLAR BLUFF   PTCLDY    57  30  35 W7        29.88R
WEST PLAINS    CLEAR     48  30  49 W5        29.91R

$$


USA.gov is the U.S. government's official web portal to all federal, state and local government web resources and services.